Location: Hurstbourne Priors
(51.2000°N, 1.3667°W)
Time: 02:26:59
(UTC+00:00)

S-56A Canister/Altair - Visible Passes

Search period start: 21 April 2021 00:00
Search period end: 01 May 2021 00:00
Orbit: 632 x 2500 km, 38.9° (Epoch: 20 April)

Date Brightness Start Highest point End Pass type
(mag) Time Alt. Az. Time Alt. Az. Time Alt. Az.
21 Apr 9.2 03:42:09 11° SSW 03:42:09 11° SSW 03:43:06 10° S visible
22 Apr 10.4 20:27:05 10° SSE 20:27:53 10° SSE 20:27:54 10° SSE visible
22 Apr 10.5 22:24:58 10° SSW 22:25:27 11° SSW 22:25:27 11° SSW visible
23 Apr 10.0 21:51:51 10° SSW 21:55:52 19° S 21:55:52 19° S visible
24 Apr 9.6 21:18:43 10° SSW 21:25:48 22° SSE 21:26:10 22° SSE visible
24 Apr 10.3 23:22:14 10° SW 23:23:40 14° SW 23:23:40 14° SW visible
25 Apr 9.7 20:45:35 10° SSW 20:53:02 22° SSE 20:56:16 18° SE visible
25 Apr 9.7 22:48:56 10° SW 22:53:46 25° SSW 22:53:46 25° SSW visible
26 Apr 10.0 20:12:28 10° SSW 20:20:13 21° SSE 20:26:09 10° ESE visible
26 Apr 9.2 22:15:35 10° SW 22:23:39 31° S 22:23:39 31° S visible
27 Apr 10.4 00:20:39 10° WSW 00:21:07 11° WSW 00:21:07 11° WSW visible
27 Apr 9.2 21:42:12 10° SW 21:51:07 32° S 21:53:19 28° SE visible
27 Apr 9.9 23:47:17 10° WSW 23:50:47 21° SW 23:50:47 21° SW visible
28 Apr 9.5 21:08:48 10° SW 21:18:18 33° S 21:22:49 20° ESE visible
28 Apr 9.3 23:13:51 10° WSW 23:20:16 30° SSW 23:20:16 30° SSW visible
29 Apr 9.7 20:35:24 10° SW 20:45:26 33° SSE 20:52:10 12° ESE visible
29 Apr 9.1 22:40:22 10° WSW 22:49:08 35° S 22:49:37 35° S visible
30 Apr 10.4 00:46:30 10° WSW 00:47:03 11° WSW 00:47:03 11° WSW visible
30 Apr 9.9 20:01:59 10° SW 20:12:30 33° SSE 20:20:11 10° ESE visible
30 Apr 9.1 22:06:51 10° WSW 22:16:23 37° S 22:18:50 31° SSE visible
